Location: Baia Mare
(47.6567°N, 23.5850°E)
Time: 07:49:45
(UTC+03:00)

ISS - Pass Details

Date: 21 May 2018
Orbit: 402 x 407 km, 51.6° (Epoch: 21 May)

Event Time Altitude Azimuth Distance (km) Brightness Sun altitude
Rises 23:16:32 0° 243° (WSW) 2,312 0.1 -16.4°
Reaches altitude 10° 23:18:36 10° 243° (WSW) 1,455 -1.0 -16.6°
Maximum altitude 23:21:52 84° 156° (SSE) 410 -4.0 -16.9°
Drops below altitude 10° 23:25:08 10° 67° (ENE) 1,459 -1.1 -17.1°
Sets 23:27:13 0° 67° (ENE) 2,320 0.0 -17.3°
